owner,sensor,date,latitude,longitude,sea_surface_height_above_sea_level,qcFlag 
TCOON,ioos:station:TCOON:068:1,2017-03-01T00:18:00Z,27.2970,-97.4049,4.196,1111122 
TCOON,ioos:station:TCOON:068:1,2017-03-01T01:18:00Z,27.2970,-97.4049,4.21,1111122 
TCOON,ioos:station:TCOON:068:1,2017-03-01T02:18:00Z,27.2970,-97.4049,4.215,1111122 
TCOON,ioos:station:TCOON:068:1,2017-03-01T03:18:00Z,27.2970,-97.4049,4.209,1111122 
TCOON,ioos:station:TCOON:068:1,2017-03-01T04:18:00Z,27.2970,-97.4049,4.214,1111122 
TCOON,ioos:station:TCOON:068:1,2017-03-01T05:18:00Z,27.2970,-97.4049,4.224,1111122 
TCOON,ioos:station:TCOON:068:1,2017-03-01T06:18:00Z,27.2970,-97.4049,4.229,1111122 
TCOON,ioos:station:TCOON:068:1,2017-03-01T07:18:00Z,27.2970,-97.4049,4.218,1111122 
TCOON,ioos:station:TCOON:068:1,2017-03-01T08:18:00Z,27.2970,-97.4049,4.195,1111122 
TCOON,ioos:station:TCOON:068:1,2017-03-01T09:18:00Z,27.2970,-97.4049,4.177,1111122 
TCOON,ioos:station:TCOON:068:1,2017-03-01T10:18:00Z,27.2970,-97.4049,4.208,1111122 
TCOON,ioos:station:TCOON:068:1,2017-03-01T11:18:00Z,27.2970,-97.4049,4.221,1111122 
TCOON,ioos:station:TCOON:068:1,2017-03-01T12:18:00Z,27.2970,-97.4049,4.213,1111122 
TCOON,ioos:station:TCOON:068:1,2017-03-01T13:18:00Z,27.2970,-97.4049,4.197,1111122 
TCOON,ioos:station:TCOON:068:1,2017-03-01T14:18:00Z,27.2970,-97.4049,4.205,1111122 
TCOON,ioos:station:TCOON:068:1,2017-03-01T15:18:00Z,27.2970,-97.4049,4.215,1111122 
TCOON,ioos:station:TCOON:068:1,2017-03-01T16:18:00Z,27.2970,-97.4049,4.21,1111122 
TCOON,ioos:station:TCOON:068:1,2017-03-01T17:18:00Z,27.2970,-97.4049,4.223,1111122 
TCOON,ioos:station:TCOON:068:1,2017-03-01T18:18:00Z,27.2970,-97.4049,4.226,1111122 
TCOON,ioos:station:TCOON:068:1,2017-03-01T19:18:00Z,27.2970,-97.4049,4.214,1111122 
TCOON,ioos:station:TCOON:068:1,2017-03-01T20:18:00Z,27.2970,-97.4049,4.212,1111122 
TCOON,ioos:station:TCOON:068:1,2017-03-01T21:18:00Z,27.2970,-97.4049,4.212,1111122 
TCOON,ioos:station:TCOON:068:1,2017-03-01T22:18:00Z,27.2970,-97.4049,4.226,1111122 
TCOON,ioos:station:TCOON:068:1,2017-03-02T00:18:00Z,27.2970,-97.4049,4.201,1111122 
TCOON,ioos:station:TCOON:068:1,2017-03-02T01:12:00Z,27.2970,-97.4049,4.215,1111122 
TCOON,ioos:station:TCOON:068:1,2017-03-02T02:18:00Z,27.2970,-97.4049,4.223,1111122 
TCOON,ioos:station:TCOON:068:1,2017-03-02T03:18:00Z,27.2970,-97.4049,4.219,1111122 
TCOON,ioos:station:TCOON:068:1,2017-03-02T04:18:00Z,27.2970,-97.4049,4.223,1111122 
TCOON,ioos:station:TCOON:068:1,2017-03-02T05:18:00Z,27.2970,-97.4049,4.228,1111122 
TCOON,ioos:station:TCOON:068:1,2017-03-02T06:18:00Z,27.2970,-97.4049,4.237,1111122 
TCOON,ioos:station:TCOON:068:1,2017-03-02T07:12:00Z,27.2970,-97.4049,4.243,1111122 
TCOON,ioos:station:TCOON:068:1,2017-03-02T08:18:00Z,27.2970,-97.4049,4.244,1111122 
TCOON,ioos:station:TCOON:068:1,2017-03-02T09:18:00Z,27.2970,-97.4049,4.232,1111122 
TCOON,ioos:station:TCOON:068:1,2017-03-02T10:18:00Z,27.2970,-97.4049,4.222,1111122 
TCOON,ioos:station:TCOON:068:1,2017-03-02T11:18:00Z,27.2970,-97.4049,4.213,1111122 
TCOON,ioos:station:TCOON:068:1,2017-03-02T12:12:00Z,27.2970,-97.4049,4.216,1111122 
TCOON,ioos:station:TCOON:068:1,2017-03-02T13:18:00Z,27.2970,-97.4049,4.221,1111122 
TCOON,ioos:station:TCOON:068:1,2017-03-02T14:18:00Z,27.2970,-97.4049,4.239,1111122 
TCOON,ioos:station:TCOON:068:1,2017-03-02T15:18:00Z,27.2970,-97.4049,4.225,1111122 
TCOON,ioos:station:TCOON:068:1,2017-03-02T16:18:00Z,27.2970,-97.4049,4.201,1111122 
TCOON,ioos:station:TCOON:068:1,2017-03-02T17:18:00Z,27.2970,-97.4049,4.195,1111122 
TCOON,ioos:station:TCOON:068:1,2017-03-02T18:18:00Z,27.2970,-97.4049,4.21,1111122 
TCOON,ioos:station:TCOON:068:1,2017-03-02T19:18:00Z,27.2970,-97.4049,4.217,1111122 
TCOON,ioos:station:TCOON:068:1,2017-03-02T20:18:00Z,27.2970,-97.4049,4.219,1111122 
TCOON,ioos:station:TCOON:068:1,2017-03-02T21:18:00Z,27.2970,-97.4049,4.225,1111122 
TCOON,ioos:station:TCOON:068:1,2017-03-02T22:18:00Z,27.2970,-97.4049,4.226,1111122 
TCOON,ioos:station:TCOON:068:1,2017-03-02T23:18:00Z,27.2970,-97.4049,4.225,1111122 
TCOON,ioos:station:TCOON:068:1,2017-03-03T00:18:00Z,27.2970,-97.4049,4.227,1111122 
TCOON,ioos:station:TCOON:068:1,2017-03-03T01:18:00Z,27.2970,-97.4049,4.228,1111122 
TCOON,ioos:station:TCOON:068:1,2017-03-03T02:18:00Z,27.2970,-97.4049,4.235,1111122 
TCOON,ioos:station:TCOON:068:1,2017-03-03T03:18:00Z,27.2970,-97.4049,4.241,1111122 
TCOON,ioos:station:TCOON:068:1,2017-03-03T04:18:00Z,27.2970,-97.4049,4.251,1111122 
TCOON,ioos:station:TCOON:068:1,2017-03-03T05:18:00Z,27.2970,-97.4049,4.25,1111122 
TCOON,ioos:station:TCOON:068:1,2017-03-03T06:18:00Z,27.2970,-97.4049,4.261,1111122 
TCOON,ioos:station:TCOON:068:1,2017-03-03T07:18:00Z,27.2970,-97.4049,4.258,1111122 
TCOON,ioos:station:TCOON:068:1,2017-03-03T08:18:00Z,27.2970,-97.4049,4.255,1111122 
TCOON,ioos:station:TCOON:068:1,2017-03-03T09:18:00Z,27.2970,-97.4049,4.26,1111122 
TCOON,ioos:station:TCOON:068:1,2017-03-03T10:18:00Z,27.2970,-97.4049,4.277,1111122 
TCOON,ioos:station:TCOON:068:1,2017-03-03T11:18:00Z,27.2970,-97.4049,4.295,1111122 
TCOON,ioos:station:TCOON:068:1,2017-03-03T12:18:00Z,27.2970,-97.4049,4.303,1111122 
TCOON,ioos:station:TCOON:068:1,2017-03-03T13:18:00Z,27.2970,-97.4049,4.293,1111122 
TCOON,ioos:station:TCOON:068:1,2017-03-03T14:18:00Z,27.2970,-97.4049,4.282,1111122 
TCOON,ioos:station:TCOON:068:1,2017-03-03T15:18:00Z,27.2970,-97.4049,4.276,1111122 
TCOON,ioos:station:TCOON:068:1,2017-03-03T16:18:00Z,27.2970,-97.4049,4.274,1111122 
TCOON,ioos:station:TCOON:068:1,2017-03-03T17:18:00Z,27.2970,-97.4049,4.27,1111122 
TCOON,ioos:station:TCOON:068:1,2017-03-03T18:18:00Z,27.2970,-97.4049,4.256,1111122 
TCOON,ioos:station:TCOON:068:1,2017-03-03T19:18:00Z,27.2970,-97.4049,4.258,1111122 
TCOON,ioos:station:TCOON:068:1,2017-03-03T20:18:00Z,27.2970,-97.4049,4.255,1111122 
TCOON,ioos:station:TCOON:068:1,2017-03-03T21:18:00Z,27.2970,-97.4049,4.264,1111122 
TCOON,ioos:station:TCOON:068:1,2017-03-03T22:18:00Z,27.2970,-97.4049,4.262,1111122 
TCOON,ioos:station:TCOON:068:1,2017-03-04T00:18:00Z,27.2970,-97.4049,4.279,1111122 
TCOON,ioos:station:TCOON:068:1,2017-03-04T01:18:00Z,27.2970,-97.4049,4.291,1111122 
TCOON,ioos:station:TCOON:068:1,2017-03-04T02:18:00Z,27.2970,-97.4049,4.307,1111122 
TCOON,ioos:station:TCOON:068:1,2017-03-04T03:18:00Z,27.2970,-97.4049,4.312,1111122 
TCOON,ioos:station:TCOON:068:1,2017-03-04T04:18:00Z,27.2970,-97.4049,4.313,1111122 
TCOON,ioos:station:TCOON:068:1,2017-03-04T05:18:00Z,27.2970,-97.4049,4.322,1111122 
TCOON,ioos:station:TCOON:068:1,2017-03-04T06:18:00Z,27.2970,-97.4049,4.325,1111122 
TCOON,ioos:station:TCOON:068:1,2017-03-04T07:18:00Z,27.2970,-97.4049,4.326,1111122 
TCOON,ioos:station:TCOON:068:1,2017-03-04T08:18:00Z,27.2970,-97.4049,4.326,1111122 
TCOON,ioos:station:TCOON:068:1,2017-03-04T09:18:00Z,27.2970,-97.4049,4.33,1111122 
TCOON,ioos:station:TCOON:068:1,2017-03-04T10:18:00Z,27.2970,-97.4049,4.329,1111122 
TCOON,ioos:station:TCOON:068:1,2017-03-04T11:18:00Z,27.2970,-97.4049,4.328,1111122 
TCOON,ioos:station:TCOON:068:1,2017-03-04T12:18:00Z,27.2970,-97.4049,4.32,1111122 
TCOON,ioos:station:TCOON:068:1,2017-03-04T13:18:00Z,27.2970,-97.4049,4.317,1111122 
TCOON,ioos:station:TCOON:068:1,2017-03-04T14:18:00Z,27.2970,-97.4049,4.316,1111122 
TCOON,ioos:station:TCOON:068:1,2017-03-04T15:18:00Z,27.2970,-97.4049,4.318,1111122 
TCOON,ioos:station:TCOON:068:1,2017-03-04T16:18:00Z,27.2970,-97.4049,4.321,1111122 
TCOON,ioos:station:TCOON:068:1,2017-03-04T17:18:00Z,27.2970,-97.4049,4.315,1111122 
TCOON,ioos:station:TCOON:068:1,2017-03-04T18:18:00Z,27.2970,-97.4049,4.332,1111122 
TCOON,ioos:station:TCOON:068:1,2017-03-04T19:18:00Z,27.2970,-97.4049,4.337,1111122 
TCOON,ioos:station:TCOON:068:1,2017-03-04T20:18:00Z,27.2970,-97.4049,4.332,1111122 
TCOON,ioos:station:TCOON:068:1,2017-03-04T21:18:00Z,27.2970,-97.4049,4.321,1111122 
TCOON,ioos:station:TCOON:068:1,2017-03-04T22:18:00Z,27.2970,-97.4049,4.315,1111122 
TCOON,ioos:station:TCOON:068:1,2017-03-04T23:18:00Z,27.2970,-97.4049,4.315,1111122 
TCOON,ioos:station:TCOON:068:1,2017-03-05T00:18:00Z,27.2970,-97.4049,4.315,1111122 
TCOON,ioos:station:TCOON:068:1,2017-03-05T01:18:00Z,27.2970,-97.4049,4.447,1111122 
TCOON,ioos:station:TCOON:068:1,2017-03-05T02:18:00Z,27.2970,-97.4049,4.405,1111122 
TCOON,ioos:station:TCOON:068:1,2017-03-05T03:18:00Z,27.2970,-97.4049,4.376,1111122 
TCOON,ioos:station:TCOON:068:1,2017-03-05T04:18:00Z,27.2970,-97.4049,4.386,1111122 
TCOON,ioos:station:TCOON:068:1,2017-03-05T05:18:00Z,27.2970,-97.4049,4.382,1111122 
TCOON,ioos:station:TCOON:068:1,2017-03-05T06:24:00Z,27.2970,-97.4049,4.4,1111122 
TCOON,ioos:station:TCOON:068:1,2017-03-05T07:18:00Z,27.2970,-97.4049,4.413,1111122 
TCOON,ioos:station:TCOON:068:1,2017-03-05T08:18:00Z,27.2970,-97.4049,4.427,1111122 
TCOON,ioos:station:TCOON:068:1,2017-03-05T09:18:00Z,27.2970,-97.4049,4.423,1111122 
TCOON,ioos:station:TCOON:068:1,2017-03-05T10:18:00Z,27.2970,-97.4049,4.41,1111122 
TCOON,ioos:station:TCOON:068:1,2017-03-05T11:18:00Z,27.2970,-97.4049,4.403,1111122 
TCOON,ioos:station:TCOON:068:1,2017-03-05T12:18:00Z,27.2970,-97.4049,4.404,1111122 
TCOON,ioos:station:TCOON:068:1,2017-03-05T13:18:00Z,27.2970,-97.4049,4.398,1111122 
TCOON,ioos:station:TCOON:068:1,2017-03-05T14:18:00Z,27.2970,-97.4049,4.401,1111122 
TCOON,ioos:station:TCOON:068:1,2017-03-05T15:18:00Z,27.2970,-97.4049,4.401,1111122 
TCOON,ioos:station:TCOON:068:1,2017-03-05T16:18:00Z,27.2970,-97.4049,4.402,1111122 
TCOON,ioos:station:TCOON:068:1,2017-03-05T17:18:00Z,27.2970,-97.4049,4.403,1111122 
TCOON,ioos:station:TCOON:068:1,2017-03-05T18:18:00Z,27.2970,-97.4049,4.4,1111122 
TCOON,ioos:station:TCOON:068:1,2017-03-05T19:18:00Z,27.2970,-97.4049,4.399,1111122 
TCOON,ioos:station:TCOON:068:1,2017-03-05T20:18:00Z,27.2970,-97.4049,4.398,1111122 
TCOON,ioos:station:TCOON:068:1,2017-03-05T21:18:00Z,27.2970,-97.4049,4.391,1111122 
TCOON,ioos:station:TCOON:068:1,2017-03-05T22:18:00Z,27.2970,-97.4049,4.384,1111122 
TCOON,ioos:station:TCOON:068:1,2017-03-05T23:18:00Z,27.2970,-97.4049,4.377,1111122 
TCOON,ioos:station:TCOON:068:1,2017-03-06T00:18:00Z,27.2970,-97.4049,4.37,1111122 
TCOON,ioos:station:TCOON:068:1,2017-03-06T01:18:00Z,27.2970,-97.4049,4.387,1111122 
TCOON,ioos:station:TCOON:068:1,2017-03-06T02:18:00Z,27.2970,-97.4049,4.393,1111122 
TCOON,ioos:station:TCOON:068:1,2017-03-06T03:18:00Z,27.2970,-97.4049,4.394,1111122 
TCOON,ioos:station:TCOON:068:1,2017-03-06T04:18:00Z,27.2970,-97.4049,4.396,1111122 
TCOON,ioos:station:TCOON:068:1,2017-03-06T05:18:00Z,27.2970,-97.4049,4.404,1111122 
TCOON,ioos:station:TCOON:068:1,2017-03-06T06:18:00Z,27.2970,-97.4049,4.408,1111122 
TCOON,ioos:station:TCOON:068:1,2017-03-06T07:18:00Z,27.2970,-97.4049,4.402,1111122 
TCOON,ioos:station:TCOON:068:1,2017-03-06T08:18:00Z,27.2970,-97.4049,4.398,1111122 
TCOON,ioos:station:TCOON:068:1,2017-03-06T09:18:00Z,27.2970,-97.4049,4.4,1111122 
TCOON,ioos:station:TCOON:068:1,2017-03-06T10:18:00Z,27.2970,-97.4049,4.4,1111122 
TCOON,ioos:station:TCOON:068:1,2017-03-06T11:18:00Z,27.2970,-97.4049,4.401,1111122 
TCOON,ioos:station:TCOON:068:1,2017-03-06T12:18:00Z,27.2970,-97.4049,4.396,1111122 
TCOON,ioos:station:TCOON:068:1,2017-03-06T13:18:00Z,27.2970,-97.4049,4.391,1111122 
TCOON,ioos:station:TCOON:068:1,2017-03-06T14:18:00Z,27.2970,-97.4049,4.393,1111122 
TCOON,ioos:station:TCOON:068:1,2017-03-06T15:18:00Z,27.2970,-97.4049,4.401,1111122 
TCOON,ioos:station:TCOON:068:1,2017-03-06T16:18:00Z,27.2970,-97.4049,4.397,1111122 
TCOON,ioos:station:TCOON:068:1,2017-03-06T17:18:00Z,27.2970,-97.4049,4.375,1111122 
TCOON,ioos:station:TCOON:068:1,2017-03-06T18:18:00Z,27.2970,-97.4049,4.375,1111122 
TCOON,ioos:station:TCOON:068:1,2017-03-06T19:18:00Z,27.2970,-97.4049,4.349,1111122 
TCOON,ioos:station:TCOON:068:1,2017-03-06T20:18:00Z,27.2970,-97.4049,4.332,1111122 
TCOON,ioos:station:TCOON:068:1,2017-03-06T21:18:00Z,27.2970,-97.4049,4.326,1111122 
TCOON,ioos:station:TCOON:068:1,2017-03-06T22:18:00Z,27.2970,-97.4049,4.319,1111122 
TCOON,ioos:station:TCOON:068:1,2017-03-06T23:18:00Z,27.2970,-97.4049,4.313,1111122 
TCOON,ioos:station:TCOON:068:1,2017-03-07T00:18:00Z,27.2970,-97.4049,4.323,1111122 
TCOON,ioos:station:TCOON:068:1,2017-03-07T01:18:00Z,27.2970,-97.4049,4.335,1111122 
TCOON,ioos:station:TCOON:068:1,2017-03-07T02:18:00Z,27.2970,-97.4049,4.348,1111122 
TCOON,ioos:station:TCOON:068:1,2017-03-07T03:18:00Z,27.2970,-97.4049,4.354,1111122 
TCOON,ioos:station:TCOON:068:1,2017-03-07T04:18:00Z,27.2970,-97.4049,4.37,1111122 
TCOON,ioos:station:TCOON:068:1,2017-03-07T05:18:00Z,27.2970,-97.4049,4.375,1111122 
TCOON,ioos:station:TCOON:068:1,2017-03-07T06:18:00Z,27.2970,-97.4049,4.364,1111122 
TCOON,ioos:station:TCOON:068:1,2017-03-07T07:18:00Z,27.2970,-97.4049,4.37,1111122 
TCOON,ioos:station:TCOON:068:1,2017-03-07T08:18:00Z,27.2970,-97.4049,4.378,1111122 
TCOON,ioos:station:TCOON:068:1,2017-03-07T09:18:00Z,27.2970,-97.4049,4.379,1111122 
TCOON,ioos:station:TCOON:068:1,2017-03-07T10:18:00Z,27.2970,-97.4049,4.378,1111122 
TCOON,ioos:station:TCOON:068:1,2017-03-07T11:18:00Z,27.2970,-97.4049,4.372,1111122 
TCOON,ioos:station:TCOON:068:1,2017-03-07T12:18:00Z,27.2970,-97.4049,4.372,1111122 
TCOON,ioos:station:TCOON:068:1,2017-03-07T13:18:00Z,27.2970,-97.4049,4.373,1111122 
TCOON,ioos:station:TCOON:068:1,2017-03-07T14:18:00Z,27.2970,-97.4049,4.37,1111122 
TCOON,ioos:station:TCOON:068:1,2017-03-07T15:18:00Z,27.2970,-97.4049,4.371,1111122 
TCOON,ioos:station:TCOON:068:1,2017-03-07T16:18:00Z,27.2970,-97.4049,4.364,1111122 
TCOON,ioos:station:TCOON:068:1,2017-03-07T17:18:00Z,27.2970,-97.4049,4.358,1111122 
TCOON,ioos:station:TCOON:068:1,2017-03-07T18:24:00Z,27.2970,-97.4049,4.355,1111122 
TCOON,ioos:station:TCOON:068:1,2017-03-07T19:24:00Z,27.2970,-97.4049,4.35,1111122 
TCOON,ioos:station:TCOON:068:1,2017-03-07T20:18:00Z,27.2970,-97.4049,4.355,1111122 
TCOON,ioos:station:TCOON:068:1,2017-03-07T21:18:00Z,27.2970,-97.4049,4.355,1111122 
TCOON,ioos:station:TCOON:068:1,2017-03-07T22:18:00Z,27.2970,-97.4049,4.356,1111122 
TCOON,ioos:station:TCOON:068:1,2017-03-08T00:18:00Z,27.2970,-97.4049,4.362,1111122 
TCOON,ioos:station:TCOON:068:1,2017-03-08T01:18:00Z,27.2970,-97.4049,4.364,1111122 
TCOON,ioos:station:TCOON:068:1,2017-03-08T02:18:00Z,27.2970,-97.4049,4.369,1111122 
TCOON,ioos:station:TCOON:068:1,2017-03-08T03:18:00Z,27.2970,-97.4049,4.369,1111122 
TCOON,ioos:station:TCOON:068:1,2017-03-08T04:18:00Z,27.2970,-97.4049,4.368,1111122 
TCOON,ioos:station:TCOON:068:1,2017-03-08T05:18:00Z,27.2970,-97.4049,4.371,1111122 
TCOON,ioos:station:TCOON:068:1,2017-03-08T06:18:00Z,27.2970,-97.4049,4.383,1111122 
TCOON,ioos:station:TCOON:068:1,2017-03-08T07:18:00Z,27.2970,-97.4049,4.37,1111122 
TCOON,ioos:station:TCOON:068:1,2017-03-08T08:18:00Z,27.2970,-97.4049,4.371,1111122 
TCOON,ioos:station:TCOON:068:1,2017-03-08T09:18:00Z,27.2970,-97.4049,4.364,1111122 
TCOON,ioos:station:TCOON:068:1,2017-03-08T10:18:00Z,27.2970,-97.4049,4.361,1111122 
TCOON,ioos:station:TCOON:068:1,2017-03-08T11:18:00Z,27.2970,-97.4049,4.364,1111122 
TCOON,ioos:station:TCOON:068:1,2017-03-08T12:18:00Z,27.2970,-97.4049,4.372,1111122 
TCOON,ioos:station:TCOON:068:1,2017-03-08T13:18:00Z,27.2970,-97.4049,4.377,1111122 
TCOON,ioos:station:TCOON:068:1,2017-03-08T14:18:00Z,27.2970,-97.4049,4.385,1111122 
TCOON,ioos:station:TCOON:068:1,2017-03-08T15:18:00Z,27.2970,-97.4049,4.393,1111122 
TCOON,ioos:station:TCOON:068:1,2017-03-08T16:18:00Z,27.2970,-97.4049,4.395,1111122 
TCOON,ioos:station:TCOON:068:1,2017-03-08T17:18:00Z,27.2970,-97.4049,4.399,1111122 
TCOON,ioos:station:TCOON:068:1,2017-03-08T18:18:00Z,27.2970,-97.4049,4.398,1111122 
TCOON,ioos:station:TCOON:068:1,2017-03-08T19:18:00Z,27.2970,-97.4049,4.394,1111122 
TCOON,ioos:station:TCOON:068:1,2017-03-08T20:18:00Z,27.2970,-97.4049,4.393,1111122 
TCOON,ioos:station:TCOON:068:1,2017-03-08T21:18:00Z,27.2970,-97.4049,4.394,1111122 
TCOON,ioos:station:TCOON:068:1,2017-03-08T22:18:00Z,27.2970,-97.4049,4.404,1111122 
TCOON,ioos:station:TCOON:068:1,2017-03-08T23:18:00Z,27.2970,-97.4049,4.383,1111122 
TCOON,ioos:station:TCOON:068:1,2017-03-09T00:18:00Z,27.2970,-97.4049,4.359,1111122 
TCOON,ioos:station:TCOON:068:1,2017-03-09T01:18:00Z,27.2970,-97.4049,4.382,1111122 
TCOON,ioos:station:TCOON:068:1,2017-03-09T02:18:00Z,27.2970,-97.4049,4.407,1111122 
TCOON,ioos:station:TCOON:068:1,2017-03-09T03:18:00Z,27.2970,-97.4049,4.411,1111122 
TCOON,ioos:station:TCOON:068:1,2017-03-09T04:18:00Z,27.2970,-97.4049,4.403,1111122 
TCOON,ioos:station:TCOON:068:1,2017-03-09T05:18:00Z,27.2970,-97.4049,4.399,1111122 
TCOON,ioos:station:TCOON:068:1,2017-03-09T06:18:00Z,27.2970,-97.4049,4.403,1111122 
TCOON,ioos:station:TCOON:068:1,2017-03-09T07:18:00Z,27.2970,-97.4049,4.414,1111122 
TCOON,ioos:station:TCOON:068:1,2017-03-09T08:18:00Z,27.2970,-97.4049,4.409,1111122 
TCOON,ioos:station:TCOON:068:1,2017-03-09T09:18:00Z,27.2970,-97.4049,4.413,1111122 
TCOON,ioos:station:TCOON:068:1,2017-03-09T10:18:00Z,27.2970,-97.4049,4.417,1111122 
TCOON,ioos:station:TCOON:068:1,2017-03-09T11:18:00Z,27.2970,-97.4049,4.419,1111122 
TCOON,ioos:station:TCOON:068:1,2017-03-09T12:18:00Z,27.2970,-97.4049,4.418,1111122 
TCOON,ioos:station:TCOON:068:1,2017-03-09T13:18:00Z,27.2970,-97.4049,4.408,1111122 
TCOON,ioos:station:TCOON:068:1,2017-03-09T14:18:00Z,27.2970,-97.4049,4.405,1111122 
TCOON,ioos:station:TCOON:068:1,2017-03-09T15:18:00Z,27.2970,-97.4049,4.411,1111122 
TCOON,ioos:station:TCOON:068:1,2017-03-09T16:18:00Z,27.2970,-97.4049,4.408,1111122 
TCOON,ioos:station:TCOON:068:1,2017-03-09T17:18:00Z,27.2970,-97.4049,4.399,1111122 
TCOON,ioos:station:TCOON:068:1,2017-03-09T18:18:00Z,27.2970,-97.4049,4.388,1111122 
TCOON,ioos:station:TCOON:068:1,2017-03-09T19:18:00Z,27.2970,-97.4049,4.392,1111122 
TCOON,ioos:station:TCOON:068:1,2017-03-09T20:18:00Z,27.2970,-97.4049,4.397,1111122 
TCOON,ioos:station:TCOON:068:1,2017-03-09T21:18:00Z,27.2970,-97.4049,4.394,1111122 
TCOON,ioos:station:TCOON:068:1,2017-03-09T22:18:00Z,27.2970,-97.4049,4.404,1111122 
TCOON,ioos:station:TCOON:068:1,2017-03-09T23:18:00Z,27.2970,-97.4049,4.398,1111122 
TCOON,ioos:station:TCOON:068:1,2017-03-10T00:18:00Z,27.2970,-97.4049,4.408,1111122 
TCOON,ioos:station:TCOON:068:1,2017-03-10T01:18:00Z,27.2970,-97.4049,4.425,1111122 
TCOON,ioos:station:TCOON:068:1,2017-03-10T02:18:00Z,27.2970,-97.4049,4.403,1111122 
TCOON,ioos:station:TCOON:068:1,2017-03-10T03:18:00Z,27.2970,-97.4049,4.407,1111122 
TCOON,ioos:station:TCOON:068:1,2017-03-10T04:24:00Z,27.2970,-97.4049,4.4,1111122 
TCOON,ioos:station:TCOON:068:1,2017-03-10T05:18:00Z,27.2970,-97.4049,4.402,1111122 
TCOON,ioos:station:TCOON:068:1,2017-03-10T07:00:00Z,27.2970,-97.4049,4.408,1111122 
TCOON,ioos:station:TCOON:068:1,2017-03-10T07:18:00Z,27.2970,-97.4049,4.407,1111122 
TCOON,ioos:station:TCOON:068:1,2017-03-10T08:18:00Z,27.2970,-97.4049,4.401,1111122 
TCOON,ioos:station:TCOON:068:1,2017-03-10T09:18:00Z,27.2970,-97.4049,4.395,1111122 
TCOON,ioos:station:TCOON:068:1,2017-03-10T10:18:00Z,27.2970,-97.4049,4.396,1111122 
TCOON,ioos:station:TCOON:068:1,2017-03-10T11:18:00Z,27.2970,-97.4049,4.401,1111122 
TCOON,ioos:station:TCOON:068:1,2017-03-10T12:18:00Z,27.2970,-97.4049,4.387,1111122 
TCOON,ioos:station:TCOON:068:1,2017-03-10T13:18:00Z,27.2970,-97.4049,4.389,1111122 
TCOON,ioos:station:TCOON:068:1,2017-03-10T14:18:00Z,27.2970,-97.4049,4.396,1111122 
TCOON,ioos:station:TCOON:068:1,2017-03-10T15:18:00Z,27.2970,-97.4049,4.401,1111122 
TCOON,ioos:station:TCOON:068:1,2017-03-10T16:18:00Z,27.2970,-97.4049,4.397,1111122 
TCOON,ioos:station:TCOON:068:1,2017-03-10T17:18:00Z,27.2970,-97.4049,4.379,1111122 
TCOON,ioos:station:TCOON:068:1,2017-03-10T18:18:00Z,27.2970,-97.4049,4.375,1111122 
TCOON,ioos:station:TCOON:068:1,2017-03-10T19:18:00Z,27.2970,-97.4049,4.366,1111122 
TCOON,ioos:station:TCOON:068:1,2017-03-10T20:18:00Z,27.2970,-97.4049,4.337,1111122 
TCOON,ioos:station:TCOON:068:1,2017-03-10T21:18:00Z,27.2970,-97.4049,4.332,1111122 
TCOON,ioos:station:TCOON:068:1,2017-03-10T22:18:00Z,27.2970,-97.4049,4.345,1111122 
TCOON,ioos:station:TCOON:068:1,2017-03-10T23:18:00Z,27.2970,-97.4049,4.349,1111122 
TCOON,ioos:station:TCOON:068:1,2017-03-11T00:18:00Z,27.2970,-97.4049,4.348,1111122 
TCOON,ioos:station:TCOON:068:1,2017-03-11T01:18:00Z,27.2970,-97.4049,4.362,1111122 
TCOON,ioos:station:TCOON:068:1,2017-03-11T02:18:00Z,27.2970,-97.4049,4.369,1111122 
TCOON,ioos:station:TCOON:068:1,2017-03-11T04:06:00Z,27.2970,-97.4049,4.397,1111122 
TCOON,ioos:station:TCOON:068:1,2017-03-11T05:18:00Z,27.2970,-97.4049,4.393,1111122 
TCOON,ioos:station:TCOON:068:1,2017-03-11T06:18:00Z,27.2970,-97.4049,4.408,1111122 
TCOON,ioos:station:TCOON:068:1,2017-03-11T07:18:00Z,27.2970,-97.4049,4.411,1111122 
TCOON,ioos:station:TCOON:068:1,2017-03-11T08:18:00Z,27.2970,-97.4049,4.416,1111122 
TCOON,ioos:station:TCOON:068:1,2017-03-11T09:18:00Z,27.2970,-97.4049,4.42,1111122 
TCOON,ioos:station:TCOON:068:1,2017-03-11T10:18:00Z,27.2970,-97.4049,4.424,1111122 
TCOON,ioos:station:TCOON:068:1,2017-03-11T11:18:00Z,27.2970,-97.4049,4.425,1111122 
TCOON,ioos:station:TCOON:068:1,2017-03-11T12:18:00Z,27.2970,-97.4049,4.426,1111122 
TCOON,ioos:station:TCOON:068:1,2017-03-11T13:18:00Z,27.2970,-97.4049,4.452,1111122 
TCOON,ioos:station:TCOON:068:1,2017-03-11T14:18:00Z,27.2970,-97.4049,4.445,1111122 
TCOON,ioos:station:TCOON:068:1,2017-03-11T15:18:00Z,27.2970,-97.4049,4.442,1111122 
TCOON,ioos:station:TCOON:068:1,2017-03-11T16:18:00Z,27.2970,-97.4049,4.431,1111122 
TCOON,ioos:station:TCOON:068:1,2017-03-11T17:18:00Z,27.2970,-97.4049,4.425,1111122 
TCOON,ioos:station:TCOON:068:1,2017-03-11T18:18:00Z,27.2970,-97.4049,4.421,1111122 
TCOON,ioos:station:TCOON:068:1,2017-03-11T19:18:00Z,27.2970,-97.4049,4.416,1111122 
TCOON,ioos:station:TCOON:068:1,2017-03-11T20:18:00Z,27.2970,-97.4049,4.419,1111122 
TCOON,ioos:station:TCOON:068:1,2017-03-11T21:18:00Z,27.2970,-97.4049,4.419,1111122 
TCOON,ioos:station:TCOON:068:1,2017-03-11T22:18:00Z,27.2970,-97.4049,4.426,1111122 
TCOON,ioos:station:TCOON:068:1,2017-03-11T23:18:00Z,27.2970,-97.4049,4.419,1111122 
TCOON,ioos:station:TCOON:068:1,2017-03-12T00:18:00Z,27.2970,-97.4049,4.409,1111122 
TCOON,ioos:station:TCOON:068:1,2017-03-12T01:18:00Z,27.2970,-97.4049,4.398,1111122 
TCOON,ioos:station:TCOON:068:1,2017-03-12T02:18:00Z,27.2970,-97.4049,4.399,1111122 
TCOON,ioos:station:TCOON:068:1,2017-03-12T03:18:00Z,27.2970,-97.4049,4.393,1111122 
TCOON,ioos:station:TCOON:068:1,2017-03-12T04:18:00Z,27.2970,-97.4049,4.397,1111122 
TCOON,ioos:station:TCOON:068:1,2017-03-12T05:18:00Z,27.2970,-97.4049,4.404,1111122 
TCOON,ioos:station:TCOON:068:1,2017-03-12T06:18:00Z,27.2970,-97.4049,4.407,1111122 
TCOON,ioos:station:TCOON:068:1,2017-03-12T07:18:00Z,27.2970,-97.4049,4.404,1111122 
TCOON,ioos:station:TCOON:068:1,2017-03-12T08:18:00Z,27.2970,-97.4049,4.398,1111122 
TCOON,ioos:station:TCOON:068:1,2017-03-12T09:18:00Z,27.2970,-97.4049,4.404,1111122 
TCOON,ioos:station:TCOON:068:1,2017-03-12T10:18:00Z,27.2970,-97.4049,4.398,1111122 
TCOON,ioos:station:TCOON:068:1,2017-03-12T11:18:00Z,27.2970,-97.4049,4.398,1111122 
TCOON,ioos:station:TCOON:068:1,2017-03-12T12:18:00Z,27.2970,-97.4049,4.392,1111122 
TCOON,ioos:station:TCOON:068:1,2017-03-12T13:18:00Z,27.2970,-97.4049,4.379,1111122 
TCOON,ioos:station:TCOON:068:1,2017-03-12T14:18:00Z,27.2970,-97.4049,4.387,1111122 
TCOON,ioos:station:TCOON:068:1,2017-03-12T15:18:00Z,27.2970,-97.4049,4.367,1111122 
TCOON,ioos:station:TCOON:068:1,2017-03-12T16:18:00Z,27.2970,-97.4049,4.36,1111122 
TCOON,ioos:station:TCOON:068:1,2017-03-12T17:18:00Z,27.2970,-97.4049,4.393,1111122 
TCOON,ioos:station:TCOON:068:1,2017-03-12T18:18:00Z,27.2970,-97.4049,4.385,1111122 
TCOON,ioos:station:TCOON:068:1,2017-03-12T19:18:00Z,27.2970,-97.4049,4.396,1111122 
TCOON,ioos:station:TCOON:068:1,2017-03-12T20:18:00Z,27.2970,-97.4049,4.393,1111122 
TCOON,ioos:station:TCOON:068:1,2017-03-12T21:18:00Z,27.2970,-97.4049,4.39,1111122 
TCOON,ioos:station:TCOON:068:1,2017-03-12T22:18:00Z,27.2970,-97.4049,4.396,1111122 
TCOON,ioos:station:TCOON:068:1,2017-03-12T23:18:00Z,27.2970,-97.4049,4.413,1111122 
TCOON,ioos:station:TCOON:068:1,2017-03-13T00:18:00Z,27.2970,-97.4049,4.42,1111122 